Time,TemperatureF,DewpointF,PressureIn,WindDirection,WindDirectionDegrees,WindSpeedMPH,WindSpeedGustMPH,Humidity,HourlyPrecipIn,Conditions,Clouds,dailyrainin,SoftwareType,DateUTC
2013-08-30 00:00:00,53.8,53.0,29.56,East,96,0.0,4.0,97,0.00,,---,2.09,VWS V13.00,2013-08-30 08:00:00,
2013-08-30 00:05:00,53.8,53.0,29.56,East,101,0.0,0.0,97,0.00,,---,0.00,VWS V13.00,2013-08-30 08:05:00,
2013-08-30 00:10:00,53.8,53.0,29.56,East,100,0.0,2.2,97,0.00,,---,0.00,VWS V13.00,2013-08-30 08:10:00,
2013-08-30 00:15:00,53.8,53.0,29.56,East,97,5.8,6.3,97,0.00,,---,0.00,VWS V13.00,2013-08-30 08:15:00,
2013-08-30 00:20:00,53.8,53.0,29.59,East,86,0.0,6.3,97,0.00,,---,0.00,VWS V13.00,2013-08-30 08:20:00,
2013-08-30 00:25:00,53.8,53.0,29.59,ENE,60,0.0,3.6,97,0.00,,---,0.00,VWS V13.00,2013-08-30 08:25:00,
2013-08-30 00:30:00,53.8,53.0,29.59,ESE,107,3.1,4.0,97,0.00,,---,0.00,VWS V13.00,2013-08-30 08:30:00,
2013-08-30 00:35:00,53.8,53.0,29.59,ESE,104,2.2,8.1,97,0.00,,---,0.00,VWS V13.00,2013-08-30 08:35:00,
2013-08-30 00:40:00,53.8,53.0,29.59,ESE,102,0.0,8.1,97,0.00,,---,0.00,VWS V13.00,2013-08-30 08:40:00,
2013-08-30 00:45:00,53.8,53.0,29.59,East,97,0.0,7.2,97,0.00,,---,0.00,VWS V13.00,2013-08-30 08:45:00,
2013-08-30 00:50:00,53.8,52.7,29.59,ESE,113,4.0,7.2,96,0.00,,---,0.00,VWS V13.00,2013-08-30 08:50:00,
2013-08-30 00:55:00,53.8,52.7,29.59,East,89,2.2,7.2,96,0.00,,---,0.00,VWS V13.00,2013-08-30 08:55:00,
2013-08-30 01:00:00,53.8,52.7,29.59,ESE,103,0.0,0.0,96,0.00,,---,0.00,VWS V13.00,2013-08-30 09:00:00,
2013-08-30 01:05:00,53.8,52.7,29.59,ESE,102,0.0,2.7,96,0.00,,---,0.00,VWS V13.00,2013-08-30 09:05:00,
2013-08-30 01:10:00,53.8,52.7,29.59,East,101,0.0,2.7,96,0.00,,---,0.00,VWS V13.00,2013-08-30 09:10:00,
2013-08-30 01:15:00,53.8,52.7,29.59,NNE,31,3.1,3.1,96,0.00,,---,0.00,VWS V13.00,2013-08-30 09:15:00,
2013-08-30 01:20:00,53.8,52.7,29.59,ESE,118,0.0,3.1,96,0.00,,---,0.00,VWS V13.00,2013-08-30 09:20:00,
2013-08-30 01:25:00,53.8,52.7,29.62,ESE,104,0.0,0.0,96,0.00,,---,0.00,VWS V13.00,2013-08-30 09:25:00,
2013-08-30 01:30:00,53.8,52.7,29.62,ENE,62,0.0,2.2,96,0.00,,---,0.00,VWS V13.00,2013-08-30 09:30:00,
2013-08-30 01:35:00,53.8,52.7,29.62,NE,46,0.0,2.2,96,0.00,,---,0.00,VWS V13.00,2013-08-30 09:35:00,
2013-08-30 01:40:00,53.8,52.7,29.62,NE,43,0.0,2.2,96,0.00,,---,0.00,VWS V13.00,2013-08-30 09:40:00,
2013-08-30 01:45:00,53.8,52.7,29.62,ESE,111,0.0,0.0,96,0.00,,---,0.00,VWS V13.00,2013-08-30 09:45:00,
2013-08-30 01:49:00,53.8,52.7,29.62,ENE,77,0.0,0.0,96,0.00,,---,0.00,VWS V13.00,2013-08-30 09:49:00,
2013-08-30 01:54:00,53.8,52.7,29.62,NE,36,0.0,0.0,96,0.00,,---,0.00,VWS V13.00,2013-08-30 09:54:00,
2013-08-30 01:59:00,53.8,52.7,29.62,East,92,0.0,0.0,96,0.00,,---,0.00,VWS V13.00,2013-08-30 09:59:00,
2013-08-30 02:04:00,53.8,52.7,29.62,NNE,33,0.0,0.0,96,0.00,,---,0.00,VWS V13.00,2013-08-30 10:04:00,
2013-08-30 02:09:00,53.8,52.7,29.62,NE,49,0.0,0.0,96,0.00,,---,0.00,VWS V13.00,2013-08-30 10:09:00,
2013-08-30 02:14:00,54.3,53.2,29.62,NE,42,0.0,0.0,96,0.00,,---,0.00,VWS V13.00,2013-08-30 10:14:00,
2013-08-30 02:19:00,54.3,53.2,29.62,NE,34,0.0,0.0,96,0.00,,---,0.00,VWS V13.00,2013-08-30 10:19:00,
2013-08-30 02:24:00,54.3,53.2,29.62,ENE,74,0.0,0.0,96,0.00,,---,0.00,VWS V13.00,2013-08-30 10:24:00,
2013-08-30 02:29:00,54.3,53.2,29.62,NE,45,0.0,0.0,96,0.00,,---,0.00,VWS V13.00,2013-08-30 10:29:00,
2013-08-30 02:34:00,54.3,53.2,29.62,NE,41,0.0,0.0,96,0.00,,---,0.00,VWS V13.00,2013-08-30 10:34:00,
2013-08-30 02:39:00,54.3,53.2,29.62,NE,55,0.0,0.0,96,0.00,,---,0.00,VWS V13.00,2013-08-30 10:39:00,
2013-08-30 02:44:00,54.3,53.2,29.62,NNE,25,0.0,0.0,96,0.00,,---,0.00,VWS V13.00,2013-08-30 10:44:00,
2013-08-30 02:49:00,54.3,53.2,29.62,ENE,71,0.0,0.0,96,0.00,,---,0.00,VWS V13.00,2013-08-30 10:49:00,
2013-08-30 02:54:00,54.3,53.2,29.62,NNE,14,0.0,2.7,96,0.00,,---,0.00,VWS V13.00,2013-08-30 10:54:00,
2013-08-30 02:59:00,54.1,53.0,29.62,ENE,64,0.0,2.7,96,0.00,,---,0.00,VWS V13.00,2013-08-30 10:59:00,
2013-08-30 03:04:00,54.1,53.0,29.62,ENE,76,0.0,0.0,96,0.00,,---,0.00,VWS V13.00,2013-08-30 11:04:00,
2013-08-30 03:09:00,54.1,53.0,29.62,NE,47,0.0,0.0,96,0.00,,---,0.00,VWS V13.00,2013-08-30 11:09:00,
2013-08-30 03:14:00,54.1,53.0,29.62,ENE,59,0.0,0.0,96,0.00,,---,0.00,VWS V13.00,2013-08-30 11:14:00,
2013-08-30 03:19:00,54.1,53.0,29.62,East,92,0.0,2.7,96,0.00,,---,0.00,VWS V13.00,2013-08-30 11:19:00,
2013-08-30 03:24:00,54.0,52.8,29.65,East,92,0.0,0.0,96,0.00,,---,0.00,VWS V13.00,2013-08-30 11:24:00,
2013-08-30 03:29:00,54.0,52.8,29.65,East,89,0.0,0.0,96,0.00,,---,0.00,VWS V13.00,2013-08-30 11:29:00,
2013-08-30 03:34:00,54.0,52.8,29.65,NNE,30,0.0,0.0,96,0.00,,---,0.00,VWS V13.00,2013-08-30 11:34:00,
2013-08-30 03:39:00,54.0,52.8,29.65,ESE,111,0.0,0.0,96,0.00,,---,0.00,VWS V13.00,2013-08-30 11:39:00,
2013-08-30 03:44:00,54.0,52.8,29.65,NE,37,2.2,2.2,96,0.00,,---,0.00,VWS V13.00,2013-08-30 11:44:00,
2013-08-30 03:49:00,53.6,52.5,29.65,ENE,65,0.0,2.2,96,0.00,,---,0.00,VWS V13.00,2013-08-30 11:49:00,
2013-08-30 03:54:00,53.6,52.5,29.65,North,7,0.0,2.2,96,0.00,,---,0.00,VWS V13.00,2013-08-30 11:54:00,
2013-08-30 03:59:00,53.6,52.5,29.65,ENE,77,0.0,2.2,96,0.00,,---,0.00,VWS V13.00,2013-08-30 11:59:00,
2013-08-30 04:04:00,53.6,52.5,29.65,East,92,0.0,0.0,96,0.00,,---,0.00,VWS V13.00,2013-08-30 12:04:00,
2013-08-30 04:09:00,53.6,52.5,29.65,ENE,66,0.0,0.0,96,0.00,,---,0.00,VWS V13.00,2013-08-30 12:09:00,
2013-08-30 04:14:00,53.6,52.5,29.65,ENE,57,0.0,0.0,96,0.00,,---,0.00,VWS V13.00,2013-08-30 12:14:00,
2013-08-30 04:19:00,53.8,52.7,29.65,NE,40,0.0,0.0,96,0.00,,---,0.00,VWS V13.00,2013-08-30 12:19:00,
2013-08-30 04:24:00,53.8,52.7,29.65,NE,44,0.0,0.0,96,0.00,,---,0.00,VWS V13.00,2013-08-30 12:24:00,
2013-08-30 04:29:00,53.8,52.7,29.65,NE,40,0.0,0.0,96,0.00,,---,0.00,VWS V13.00,2013-08-30 12:29:00,
2013-08-30 04:34:00,53.6,52.5,29.68,East,101,0.0,0.0,96,0.00,,---,0.00,VWS V13.00,2013-08-30 12:34:00,
2013-08-30 04:39:00,53.6,52.5,29.68,ENE,70,0.0,0.0,96,0.00,,---,0.00,VWS V13.00,2013-08-30 12:39:00,
2013-08-30 04:44:00,53.6,52.5,29.68,NE,49,0.0,0.0,96,0.00,,---,0.00,VWS V13.00,2013-08-30 12:44:00,
2013-08-30 04:49:00,53.6,52.5,29.68,NE,43,0.0,0.0,96,0.00,,---,0.00,VWS V13.00,2013-08-30 12:49:00,
2013-08-30 04:54:00,53.6,52.5,29.68,NNE,31,0.0,0.0,96,0.00,,---,0.00,VWS V13.00,2013-08-30 12:54:00,
2013-08-30 04:59:00,53.8,53.0,29.68,NE,46,0.0,0.0,97,0.00,,---,0.00,VWS V13.00,2013-08-30 12:59:00,
2013-08-30 05:04:00,53.8,53.0,29.68,ESE,112,0.0,0.0,97,0.00,,---,0.00,VWS V13.00,2013-08-30 13:04:00,
2013-08-30 05:09:00,53.8,53.0,29.68,ESE,115,0.0,0.0,97,0.00,,---,0.00,VWS V13.00,2013-08-30 13:09:00,
2013-08-30 05:14:00,53.8,53.0,29.68,ESE,104,0.0,0.0,97,0.00,,---,0.00,VWS V13.00,2013-08-30 13:14:00,
2013-08-30 05:19:00,53.8,53.0,29.68,East,86,0.0,0.0,97,0.00,,---,0.00,VWS V13.00,2013-08-30 13:19:00,
2013-08-30 05:24:00,53.8,53.0,29.68,ESE,106,0.0,0.0,97,0.00,,---,0.00,VWS V13.00,2013-08-30 13:24:00,
2013-08-30 05:29:00,53.8,53.0,29.68,ENE,68,0.0,0.0,97,0.00,,---,0.00,VWS V13.00,2013-08-30 13:29:00,
2013-08-30 05:34:00,53.8,53.0,29.68,ESE,103,0.0,0.0,97,0.00,,---,0.00,VWS V13.00,2013-08-30 13:34:00,
2013-08-30 05:39:00,53.8,53.0,29.68,ESE,103,0.0,0.0,97,0.00,,---,0.00,VWS V13.00,2013-08-30 13:39:00,
2013-08-30 05:44:00,53.8,53.0,29.68,ESE,103,0.0,0.0,97,0.00,,---,0.00,VWS V13.00,2013-08-30 13:44:00,
2013-08-30 05:49:00,54.1,53.3,29.68,ESE,109,0.0,0.0,97,0.00,,---,0.00,VWS V13.00,2013-08-30 13:49:00,
2013-08-30 05:54:00,54.1,53.3,29.68,ESE,109,0.0,0.0,97,0.00,,---,0.00,VWS V13.00,2013-08-30 13:54:00,
2013-08-30 05:59:00,54.1,53.3,29.68,ESE,109,0.0,0.0,97,0.00,,---,0.00,VWS V13.00,2013-08-30 13:59:00,
2013-08-30 06:04:00,54.1,53.3,29.68,NE,36,0.0,0.0,97,0.00,,---,0.00,VWS V13.00,2013-08-30 14:04:00,
2013-08-30 06:09:00,54.5,53.7,29.68,NE,36,0.0,0.0,97,0.00,,---,0.00,VWS V13.00,2013-08-30 14:09:00,
2013-08-30 06:14:00,54.5,53.7,29.68,NE,36,0.0,0.0,97,0.00,,---,0.00,VWS V13.00,2013-08-30 14:14:00,
2013-08-30 06:19:00,54.5,53.7,29.68,NE,39,0.0,0.0,97,0.00,,---,0.00,VWS V13.00,2013-08-30 14:19:00,
2013-08-30 06:24:00,54.5,53.7,29.68,ESE,106,0.0,0.0,97,0.00,,---,0.00,VWS V13.00,2013-08-30 14:24:00,
2013-08-30 06:29:00,54.5,53.7,29.71,ESE,102,0.0,0.0,97,0.00,,---,0.00,VWS V13.00,2013-08-30 14:29:00,
2013-08-30 06:34:00,54.7,53.8,29.71,NE,39,0.0,0.0,97,0.00,,---,0.00,VWS V13.00,2013-08-30 14:34:00,
2013-08-30 06:39:00,54.7,53.8,29.71,NE,49,0.0,0.0,97,0.00,,---,0.00,VWS V13.00,2013-08-30 14:39:00,
2013-08-30 06:44:00,54.7,53.8,29.71,NE,49,0.0,0.0,97,0.00,,---,0.00,VWS V13.00,2013-08-30 14:44:00,
2013-08-30 06:49:00,54.7,53.8,29.71,NE,38,0.0,0.0,97,0.00,,---,0.00,VWS V13.00,2013-08-30 14:49:00,
2013-08-30 06:54:00,54.7,53.8,29.71,NE,38,0.0,0.0,97,0.00,,---,0.00,VWS V13.00,2013-08-30 14:54:00,
2013-08-30 06:59:00,54.7,53.8,29.71,NE,41,0.0,0.0,97,0.00,,---,0.00,VWS V13.00,2013-08-30 14:59:00,
2013-08-30 07:04:00,54.7,53.8,29.71,NE,40,0.0,0.0,97,0.00,,---,0.00,VWS V13.00,2013-08-30 15:04:00,
2013-08-30 07:09:00,54.7,53.8,29.71,NE,38,0.0,0.0,97,0.00,,---,0.00,VWS V13.00,2013-08-30 15:09:00,
2013-08-30 07:14:00,54.7,53.8,29.71,NE,43,0.0,0.0,97,0.00,,---,0.00,VWS V13.00,2013-08-30 15:14:00,
2013-08-30 07:19:00,54.7,53.8,29.71,NE,36,0.0,0.0,97,0.00,,---,0.00,VWS V13.00,2013-08-30 15:19:00,
2013-08-30 07:24:00,54.7,53.8,29.71,NE,36,0.0,0.0,97,0.00,,---,0.00,VWS V13.00,2013-08-30 15:24:00,
2013-08-30 07:29:00,54.7,53.8,29.71,NNE,30,0.0,0.0,97,0.00,,---,0.00,VWS V13.00,2013-08-30 15:29:00,
2013-08-30 07:34:00,54.7,53.8,29.71,NE,54,0.0,0.0,97,0.00,,---,0.00,VWS V13.00,2013-08-30 15:34:00,
2013-08-30 07:39:00,54.7,53.8,29.71,East,94,0.0,0.0,97,0.00,,---,0.00,VWS V13.00,2013-08-30 15:39:00,
2013-08-30 07:44:00,54.7,53.8,29.71,NNE,31,0.0,0.0,97,0.00,,---,0.00,VWS V13.00,2013-08-30 15:44:00,
2013-08-30 07:49:00,54.7,53.8,29.71,NE,48,0.0,0.0,97,0.00,,---,0.00,VWS V13.00,2013-08-30 15:49:00,
2013-08-30 07:54:00,54.7,53.8,29.71,NE,37,0.0,0.0,97,0.00,,---,0.00,VWS V13.00,2013-08-30 15:54:00,
2013-08-30 07:59:00,54.7,53.8,29.71,NE,39,0.0,0.0,97,0.00,,---,0.00,VWS V13.00,2013-08-30 15:59:00,
2013-08-30 08:04:00,54.7,53.8,29.71,NE,37,0.0,0.0,97,0.00,,---,0.00,VWS V13.00,2013-08-30 16:04:00,
2013-08-30 08:09:00,54.7,53.8,29.74,NE,44,0.0,0.0,97,0.00,,---,0.00,VWS V13.00,2013-08-30 16:09:00,
2013-08-30 08:14:00,54.7,53.8,29.74,NE,44,0.0,0.0,97,0.00,,---,0.00,VWS V13.00,2013-08-30 16:14:00,
2013-08-30 08:19:00,54.7,53.8,29.74,NNE,28,0.0,0.0,97,0.00,,---,0.00,VWS V13.00,2013-08-30 16:19:00,
2013-08-30 08:24:00,54.7,53.8,29.74,NNE,31,0.0,0.0,97,0.00,,---,0.00,VWS V13.00,2013-08-30 16:24:00,
2013-08-30 08:29:00,54.7,53.8,29.74,East,88,0.0,0.0,97,0.00,,---,0.00,VWS V13.00,2013-08-30 16:29:00,
2013-08-30 08:34:00,54.9,54.0,29.74,East,89,0.0,0.0,97,0.00,,---,0.00,VWS V13.00,2013-08-30 16:34:00,
2013-08-30 08:39:00,54.9,54.0,29.74,East,89,0.0,0.0,97,0.00,,---,0.00,VWS V13.00,2013-08-30 16:39:00,
2013-08-30 08:44:00,54.9,54.0,29.74,East,89,0.0,0.0,97,0.00,,---,0.00,VWS V13.00,2013-08-30 16:44:00,
2013-08-30 08:49:00,54.9,54.0,29.74,ESE,122,0.0,0.0,97,0.00,,---,0.00,VWS V13.00,2013-08-30 16:49:00,
2013-08-30 08:54:00,55.4,54.6,29.74,SE,130,0.0,0.0,97,0.00,,---,0.00,VWS V13.00,2013-08-30 16:54:00,
2013-08-30 08:59:00,55.6,54.8,29.74,SE,140,0.0,0.0,97,0.00,,---,0.00,VWS V13.00,2013-08-30 16:59:00,
2013-08-30 09:04:00,55.6,54.8,29.74,ESE,112,0.0,0.0,97,0.00,,---,0.00,VWS V13.00,2013-08-30 17:04:00,
2013-08-30 09:09:00,55.6,54.8,29.74,ESE,112,0.0,0.0,97,0.00,,---,0.00,VWS V13.00,2013-08-30 17:09:00,
2013-08-30 09:14:00,55.8,54.9,29.74,East,87,0.0,0.0,97,0.00,,---,0.00,VWS V13.00,2013-08-30 17:14:00,
2013-08-30 09:19:00,55.8,54.9,29.74,NE,55,0.0,0.0,97,0.00,,---,0.00,VWS V13.00,2013-08-30 17:19:00,
2013-08-30 09:24:00,55.8,54.9,29.74,ESE,114,0.0,0.0,97,0.00,,---,0.00,VWS V13.00,2013-08-30 17:24:00,
2013-08-30 09:29:00,55.9,54.8,29.74,ESE,114,0.0,0.0,96,0.00,,---,0.00,VWS V13.00,2013-08-30 17:29:00,
2013-08-30 09:34:00,55.9,55.1,29.74,ESE,114,0.0,0.0,97,0.00,,---,0.00,VWS V13.00,2013-08-30 17:34:00,
2013-08-30 09:39:00,55.9,54.8,29.74,ESE,114,0.0,0.0,96,0.00,,---,0.00,VWS V13.00,2013-08-30 17:39:00,
2013-08-30 09:44:00,55.9,54.8,29.74,SE,128,0.0,0.0,96,0.00,,---,0.00,VWS V13.00,2013-08-30 17:44:00,
2013-08-30 09:49:00,56.1,55.0,29.74,SE,128,0.0,0.0,96,0.00,,---,0.00,VWS V13.00,2013-08-30 17:49:00,
2013-08-30 09:54:00,56.3,55.2,29.74,SE,128,0.0,0.0,96,0.00,,---,0.00,VWS V13.00,2013-08-30 17:54:00,
2013-08-30 09:59:00,56.3,55.2,29.74,ESE,123,0.0,0.0,96,0.00,,---,0.00,VWS V13.00,2013-08-30 17:59:00,
2013-08-30 10:04:00,56.3,55.2,29.74,NE,38,0.0,0.0,96,0.00,,---,0.00,VWS V13.00,2013-08-30 18:04:00,
2013-08-30 10:09:00,56.5,55.4,29.74,NE,38,0.0,0.0,96,0.00,,---,0.00,VWS V13.00,2013-08-30 18:09:00,
2013-08-30 10:14:00,56.7,55.5,29.74,NE,49,0.0,0.0,96,0.00,,---,0.00,VWS V13.00,2013-08-30 18:14:00,
2013-08-30 10:19:00,56.7,55.5,29.74,NE,47,0.0,0.0,96,0.00,,---,0.00,VWS V13.00,2013-08-30 18:19:00,
2013-08-30 10:24:00,56.7,55.5,29.74,SE,130,0.0,0.0,96,0.00,,---,0.00,VWS V13.00,2013-08-30 18:24:00,
2013-08-30 10:29:00,56.8,55.7,29.74,NNE,28,0.0,0.0,96,0.00,,---,0.00,VWS V13.00,2013-08-30 18:29:00,
2013-08-30 10:34:00,56.8,55.7,29.74,NNE,28,0.0,0.0,96,0.00,,---,0.00,VWS V13.00,2013-08-30 18:34:00,
2013-08-30 10:39:00,56.8,55.7,29.74,NE,34,0.0,0.0,96,0.00,,---,0.00,VWS V13.00,2013-08-30 18:39:00,
2013-08-30 10:44:00,56.8,55.7,29.74,ESE,104,0.0,2.2,96,0.00,,---,0.00,VWS V13.00,2013-08-30 18:44:00,
2013-08-30 10:49:00,57.0,55.9,29.74,NE,35,0.0,2.2,96,0.00,,---,0.00,VWS V13.00,2013-08-30 18:49:00,
2013-08-30 10:54:00,56.8,55.7,29.77,ENE,77,0.0,2.2,96,0.00,,---,0.00,VWS V13.00,2013-08-30 18:54:00,
2013-08-30 10:59:00,57.0,55.6,29.77,ESE,115,0.0,2.2,95,0.00,,---,0.00,VWS V13.00,2013-08-30 18:59:00,
2013-08-30 11:04:00,57.0,55.6,29.77,SE,139,0.0,0.0,95,0.00,,---,0.00,VWS V13.00,2013-08-30 19:04:00,
2013-08-30 11:09:00,57.2,55.8,29.77,SE,126,0.0,0.0,95,0.00,,---,0.00,VWS V13.00,2013-08-30 19:09:00,
2013-08-30 11:14:00,57.2,55.5,29.77,ESE,123,0.0,0.0,94,0.00,,---,0.00,VWS V13.00,2013-08-30 19:14:00,
2013-08-30 11:19:00,57.4,55.7,29.77,NE,54,0.0,0.0,94,0.00,,---,0.00,VWS V13.00,2013-08-30 19:19:00,
2013-08-30 11:24:00,57.2,55.5,29.77,East,92,0.0,0.0,94,0.00,,---,0.00,VWS V13.00,2013-08-30 19:24:00,
2013-08-30 11:29:00,57.6,55.8,29.77,ENE,68,0.0,0.0,94,0.00,,---,0.00,VWS V13.00,2013-08-30 19:29:00,
2013-08-30 11:34:00,57.9,55.9,29.77,ENE,60,0.0,0.0,93,0.00,,---,0.00,VWS V13.00,2013-08-30 19:34:00,
2013-08-30 11:39:00,57.9,55.9,29.77,East,80,0.0,0.0,93,0.00,,---,0.00,VWS V13.00,2013-08-30 19:39:00,
2013-08-30 11:44:00,57.9,55.9,29.77,ENE,63,0.0,0.0,93,0.00,,---,0.00,VWS V13.00,2013-08-30 19:44:00,
2013-08-30 11:49:00,58.1,55.8,29.77,NNE,27,0.0,3.1,92,0.00,,---,0.00,VWS V13.00,2013-08-30 19:49:00,
2013-08-30 11:54:00,58.3,56.0,29.77,NNE,32,0.0,3.1,92,0.00,,---,0.00,VWS V13.00,2013-08-30 19:54:00,
2013-08-30 11:59:00,58.5,56.2,29.77,NE,34,0.0,4.0,92,0.00,,---,0.00,VWS V13.00,2013-08-30 19:59:00,
2013-08-30 12:04:00,58.5,55.8,29.77,East,93,0.0,0.0,91,0.00,,---,0.00,VWS V13.00,2013-08-30 20:04:00,
2013-08-30 12:09:00,58.6,55.7,29.77,NE,35,0.0,0.0,90,0.00,,---,0.00,VWS V13.00,2013-08-30 20:09:00,
2013-08-30 12:14:00,58.8,55.9,29.77,ESE,108,0.0,0.0,90,0.00,,---,0.00,VWS V13.00,2013-08-30 20:14:00,
2013-08-30 12:19:00,58.8,55.6,29.77,ESE,114,0.0,0.0,89,0.00,,---,0.00,VWS V13.00,2013-08-30 20:19:00,
2013-08-30 12:24:00,58.6,54.8,29.77,ESE,107,6.3,6.3,87,0.00,,---,0.00,VWS V13.00,2013-08-30 20:24:00,
2013-08-30 12:29:00,58.6,53.8,29.77,SE,140,0.0,6.3,84,0.00,,---,0.00,VWS V13.00,2013-08-30 20:29:00,
2013-08-30 12:34:00,59.2,54.4,29.77,North,11,0.0,6.3,84,0.00,,---,0.00,VWS V13.00,2013-08-30 20:34:00,
2013-08-30 12:39:00,59.0,53.8,29.77,NE,49,0.0,6.3,83,0.00,,---,0.00,VWS V13.00,2013-08-30 20:39:00,
2013-08-30 12:44:00,59.4,54.2,29.77,ESE,118,6.3,6.3,83,0.00,,---,0.00,VWS V13.00,2013-08-30 20:44:00,
2013-08-30 12:49:00,59.4,53.9,29.77,NE,41,0.0,6.3,82,0.00,,---,0.00,VWS V13.00,2013-08-30 20:49:00,
2013-08-30 12:54:00,59.4,53.5,29.77,North,1,0.0,6.3,81,0.00,,---,0.00,VWS V13.00,2013-08-30 20:54:00,
2013-08-30 12:59:00,59.5,53.7,29.77,North,9,0.0,6.3,81,0.00,,---,0.00,VWS V13.00,2013-08-30 20:59:00,
2013-08-30 13:04:00,59.5,53.7,29.77,NNE,31,4.9,4.9,81,0.00,,---,0.00,VWS V13.00,2013-08-30 21:04:00,
2013-08-30 13:09:00,59.5,53.7,29.77,NNE,24,0.0,4.9,81,0.00,,---,0.00,VWS V13.00,2013-08-30 21:09:00,
2013-08-30 13:14:00,59.7,53.5,29.77,NE,35,0.0,6.3,80,0.00,,---,0.00,VWS V13.00,2013-08-30 21:14:00,
2013-08-30 13:19:00,59.5,53.4,29.77,NE,38,5.8,6.3,80,0.00,,---,0.00,VWS V13.00,2013-08-30 21:19:00,
2013-08-30 13:24:00,59.7,52.9,29.77,NE,45,0.0,3.6,78,0.00,,---,0.00,VWS V13.00,2013-08-30 21:24:00,
2013-08-30 13:29:00,59.7,52.9,29.77,NNE,17,0.0,3.6,78,0.00,,---,0.00,VWS V13.00,2013-08-30 21:29:00,
2013-08-30 13:34:00,59.9,52.7,29.77,North,4,0.0,3.6,77,0.00,,---,0.00,VWS V13.00,2013-08-30 21:34:00,
2013-08-30 13:39:00,59.7,51.8,29.77,NNE,13,4.9,4.9,75,0.00,,---,0.00,VWS V13.00,2013-08-30 21:39:00,
2013-08-30 13:44:00,60.1,51.8,29.77,NE,34,4.0,4.0,74,0.00,,---,0.00,VWS V13.00,2013-08-30 21:44:00,
2013-08-30 13:49:00,60.1,51.4,29.77,NNE,14,5.8,5.8,73,0.00,,---,0.00,VWS V13.00,2013-08-30 21:49:00,
2013-08-30 13:54:00,60.1,51.4,29.77,West,273,4.5,5.8,73,0.00,,---,0.00,VWS V13.00,2013-08-30 21:54:00,
2013-08-30 13:59:00,60.3,50.5,29.80,NNE,13,0.0,5.8,70,0.00,,---,0.00,VWS V13.00,2013-08-30 21:59:00,
2013-08-30 14:04:00,60.3,50.1,29.80,North,7,0.0,0.0,69,0.00,,---,0.00,VWS V13.00,2013-08-30 22:04:00,
2013-08-30 14:09:00,60.3,49.3,29.80,North,5,0.0,0.0,67,0.00,,---,0.00,VWS V13.00,2013-08-30 22:09:00,
2013-08-30 14:14:00,60.3,48.5,29.80,North,7,3.6,3.6,65,0.00,,---,0.00,VWS V13.00,2013-08-30 22:14:00,
2013-08-30 14:19:00,60.3,48.5,29.80,North,7,0.0,4.9,65,0.00,,---,0.00,VWS V13.00,2013-08-30 22:19:00,
2013-08-30 14:24:00,60.4,48.2,29.77,ENE,75,0.0,5.4,64,0.00,,---,0.00,VWS V13.00,2013-08-30 22:24:00,
2013-08-30 14:29:00,60.6,48.4,29.77,North,0,3.6,5.4,64,0.00,,---,0.00,VWS V13.00,2013-08-30 22:29:00,
2013-08-30 14:34:00,60.8,48.1,29.77,North,4,4.0,5.4,63,0.00,,---,0.00,VWS V13.00,2013-08-30 22:34:00,
2013-08-30 14:39:00,61.0,48.3,29.77,NNE,19,4.9,5.4,63,0.00,,---,0.00,VWS V13.00,2013-08-30 22:39:00,
2013-08-30 14:44:00,61.2,47.6,29.77,NNE,12,3.1,4.0,61,0.00,,---,0.00,VWS V13.00,2013-08-30 22:44:00,
2013-08-30 14:49:00,61.2,47.6,29.77,NNE,21,0.0,4.0,61,0.00,,---,0.00,VWS V13.00,2013-08-30 22:49:00,
2013-08-30 14:54:00,61.3,47.3,29.77,NNE,22,0.0,4.0,60,0.00,,---,0.00,VWS V13.00,2013-08-30 22:54:00,
2013-08-30 14:59:00,61.3,47.3,29.77,North,357,0.0,4.0,60,0.00,,---,0.00,VWS V13.00,2013-08-30 22:59:00,
2013-08-30 15:04:00,61.7,47.7,29.77,NNE,12,0.0,4.0,60,0.00,,---,0.00,VWS V13.00,2013-08-30 23:04:00,
2013-08-30 15:09:00,61.9,47.9,29.77,North,8,0.0,4.0,60,0.00,,---,0.00,VWS V13.00,2013-08-30 23:09:00,
2013-08-30 15:14:00,61.9,47.4,29.77,NNE,29,0.0,4.0,59,0.00,,---,0.00,VWS V13.00,2013-08-30 23:14:00,
2013-08-30 15:19:00,61.9,46.5,29.77,North,5,0.0,4.0,57,0.00,,---,0.00,VWS V13.00,2013-08-30 23:19:00,
2013-08-30 15:24:00,62.1,46.7,29.77,North,4,0.0,0.0,57,0.00,,---,0.00,VWS V13.00,2013-08-30 23:24:00,
2013-08-30 15:29:00,62.2,45.9,29.77,NE,41,2.2,2.7,55,0.00,,---,0.00,VWS V13.00,2013-08-30 23:29:00,
2013-08-30 15:34:00,62.4,45.6,29.77,NNE,14,0.0,2.7,54,0.00,,---,0.00,VWS V13.00,2013-08-30 23:34:00,
2013-08-30 15:39:00,62.6,45.7,29.77,North,357,0.0,2.7,54,0.00,,---,0.00,VWS V13.00,2013-08-30 23:39:00,
2013-08-30 15:44:00,62.8,45.9,29.77,NNE,23,0.0,0.0,54,0.00,,---,0.00,VWS V13.00,2013-08-30 23:44:00,
2013-08-30 15:49:00,62.8,45.9,29.77,North,9,0.0,0.0,54,0.00,,---,0.00,VWS V13.00,2013-08-30 23:49:00,
2013-08-30 15:54:00,62.8,45.9,29.77,NNE,30,0.0,0.0,54,0.00,,---,0.00,VWS V13.00,2013-08-30 23:54:00,
2013-08-30 15:59:00,63.0,45.6,29.77,West,276,0.0,0.0,53,0.00,,---,0.00,VWS V13.00,2013-08-30 23:59:00,
2013-08-30 16:04:00,63.1,45.8,29.77,West,269,0.0,0.0,53,0.00,,---,0.00,VWS V13.00,2013-08-31 00:04:00,
2013-08-30 16:09:00,63.5,46.6,29.77,West,269,0.0,0.0,54,0.00,,---,0.00,VWS V13.00,2013-08-31 00:09:00,
2013-08-30 16:14:00,63.7,46.7,29.77,WSW,247,0.0,0.0,54,0.00,,---,0.00,VWS V13.00,2013-08-31 00:14:00,
2013-08-30 16:19:00,63.5,46.6,29.77,WSW,247,0.0,0.0,54,0.00,,---,0.00,VWS V13.00,2013-08-31 00:19:00,
2013-08-30 16:24:00,63.7,46.2,29.77,WSW,248,0.0,0.0,53,0.00,,---,0.00,VWS V13.00,2013-08-31 00:24:00,
2013-08-30 16:29:00,63.9,46.4,29.77,WSW,249,0.0,0.0,53,0.00,,---,0.00,VWS V13.00,2013-08-31 00:29:00,
2013-08-30 16:34:00,63.9,46.4,29.77,WSW,249,0.0,0.0,53,0.00,,---,0.00,VWS V13.00,2013-08-31 00:34:00,
2013-08-30 16:39:00,63.9,45.9,29.77,WSW,249,0.0,0.0,52,0.00,,---,0.00,VWS V13.00,2013-08-31 00:39:00,
2013-08-30 16:44:00,64.2,46.2,29.77,WSW,249,0.0,0.0,52,0.00,,---,0.00,VWS V13.00,2013-08-31 00:44:00,
2013-08-30 16:49:00,64.4,45.9,29.77,WSW,256,0.0,0.0,51,0.00,,---,0.00,VWS V13.00,2013-08-31 00:49:00,
2013-08-30 16:54:00,64.6,46.1,29.77,WNW,283,0.0,0.0,51,0.00,,---,0.00,VWS V13.00,2013-08-31 00:54:00,
2013-08-30 16:59:00,64.6,46.1,29.77,West,262,0.0,0.0,51,0.00,,---,0.00,VWS V13.00,2013-08-31 00:59:00,
2013-08-30 17:04:00,64.8,45.7,29.77,West,264,0.0,0.0,50,0.00,,---,0.00,VWS V13.00,2013-08-31 01:04:00,
2013-08-30 17:09:00,64.9,45.9,29.77,West,264,0.0,0.0,50,0.00,,---,0.00,VWS V13.00,2013-08-31 01:09:00,
2013-08-30 17:14:00,65.5,46.4,29.77,WSW,256,0.0,0.0,50,0.00,,---,0.00,VWS V13.00,2013-08-31 01:14:00,
2013-08-30 17:19:00,65.7,46.5,29.77,WSW,255,0.0,0.0,50,0.00,,---,0.00,VWS V13.00,2013-08-31 01:19:00,
2013-08-30 17:24:00,65.7,46.5,29.77,WSW,254,0.0,0.0,50,0.00,,---,0.00,VWS V13.00,2013-08-31 01:24:00,
2013-08-30 17:29:00,66.2,46.5,29.77,WSW,254,0.0,0.0,49,0.00,,---,0.00,VWS V13.00,2013-08-31 01:29:00,
2013-08-30 17:34:00,66.2,46.5,29.77,WSW,254,0.0,0.0,49,0.00,,---,0.00,VWS V13.00,2013-08-31 01:34:00,
2013-08-30 17:39:00,66.4,46.7,29.77,West,272,0.0,0.0,49,0.00,,---,0.00,VWS V13.00,2013-08-31 01:39:00,
2013-08-30 17:44:00,66.9,47.2,29.77,West,272,0.0,0.0,49,0.00,,---,0.00,VWS V13.00,2013-08-31 01:44:00,
2013-08-30 17:49:00,67.5,47.7,29.77,WSW,246,3.1,5.4,49,0.00,,---,0.00,VWS V13.00,2013-08-31 01:49:00,
2013-08-30 17:54:00,67.5,47.7,29.80,SW,233,0.0,5.4,49,0.00,,---,0.00,VWS V13.00,2013-08-31 01:54:00,
2013-08-30 17:59:00,66.7,45.9,29.80,SW,227,0.0,5.4,47,0.00,,---,0.00,VWS V13.00,2013-08-31 01:59:00,
2013-08-30 18:04:00,66.2,45.4,29.80,WSW,240,0.0,0.0,47,0.00,,---,0.00,VWS V13.00,2013-08-31 02:04:00,
2013-08-30 18:09:00,65.8,45.1,29.80,WSW,246,0.0,0.0,47,0.00,,---,0.00,VWS V13.00,2013-08-31 02:09:00,
2013-08-30 18:13:00,65.7,44.9,29.80,SW,223,0.0,0.0,47,0.00,,---,0.00,VWS V13.00,2013-08-31 02:13:00,
2013-08-30 18:18:00,65.7,44.9,29.80,SW,225,0.0,0.0,47,0.00,,---,0.00,VWS V13.00,2013-08-31 02:18:00,
2013-08-30 18:23:00,64.0,44.0,29.80,SW,234,0.0,0.0,48,0.00,,---,0.00,VWS V13.00,2013-08-31 02:23:00,
2013-08-30 18:28:00,63.7,44.2,29.80,SW,236,0.0,0.0,49,0.00,,---,0.00,VWS V13.00,2013-08-31 02:28:00,
2013-08-30 18:33:00,63.5,44.0,29.80,SW,236,0.0,0.0,49,0.00,,---,0.00,VWS V13.00,2013-08-31 02:33:00,
2013-08-30 18:38:00,63.1,43.7,29.80,SW,236,0.0,0.0,49,0.00,,---,0.00,VWS V13.00,2013-08-31 02:38:00,
2013-08-30 18:43:00,63.0,44.0,29.77,SW,236,0.0,0.0,50,0.00,,---,0.00,VWS V13.00,2013-08-31 02:43:00,
2013-08-30 18:48:00,62.6,43.7,29.77,SW,236,0.0,0.0,50,0.00,,---,0.00,VWS V13.00,2013-08-31 02:48:00,
2013-08-30 18:53:00,62.6,43.7,29.77,SW,236,0.0,0.0,50,0.00,,---,0.00,VWS V13.00,2013-08-31 02:53:00,
2013-08-30 18:58:00,62.6,43.7,29.77,SW,236,0.0,0.0,50,0.00,,---,0.00,VWS V13.00,2013-08-31 02:58:00,
2013-08-30 19:03:00,62.2,44.4,29.77,SW,236,0.0,0.0,52,0.00,,---,0.00,VWS V13.00,2013-08-31 03:03:00,
2013-08-30 19:08:00,62.1,44.2,29.80,WSW,238,0.0,0.0,52,0.00,,---,0.00,VWS V13.00,2013-08-31 03:08:00,
2013-08-30 19:13:00,61.9,44.1,29.80,WSW,238,0.0,0.0,52,0.00,,---,0.00,VWS V13.00,2013-08-31 03:13:00,
2013-08-30 19:18:00,61.9,44.1,29.80,WSW,238,0.0,0.0,52,0.00,,---,0.00,VWS V13.00,2013-08-31 03:18:00,
2013-08-30 19:23:00,61.7,44.4,29.80,WSW,238,0.0,0.0,53,0.00,,---,0.00,VWS V13.00,2013-08-31 03:23:00,
2013-08-30 19:28:00,61.3,44.1,29.80,WSW,238,0.0,0.0,53,0.00,,---,0.00,VWS V13.00,2013-08-31 03:28:00,
2013-08-30 19:33:00,61.2,43.9,29.80,WSW,238,0.0,0.0,53,0.00,,---,0.00,VWS V13.00,2013-08-31 03:33:00,
2013-08-30 19:38:00,61.0,44.2,29.80,WSW,238,0.0,0.0,54,0.00,,---,0.00,VWS V13.00,2013-08-31 03:38:00,
2013-08-30 19:43:00,61.0,44.2,29.80,WSW,238,0.0,0.0,54,0.00,,---,0.00,VWS V13.00,2013-08-31 03:43:00,
2013-08-30 19:48:00,60.8,44.1,29.80,WSW,238,0.0,0.0,54,0.00,,---,0.00,VWS V13.00,2013-08-31 03:48:00,
2013-08-30 19:53:00,60.8,44.1,29.80,SW,228,0.0,0.0,54,0.00,,---,0.00,VWS V13.00,2013-08-31 03:53:00,
2013-08-30 19:58:00,60.4,44.2,29.80,SW,228,0.0,0.0,55,0.00,,---,0.00,VWS V13.00,2013-08-31 03:58:00,
2013-08-30 20:01:00,60.3,44.0,29.80,SW,228,0.0,0.0,55,0.00,,---,0.00,VWS V13.00,2013-08-31 04:01:00,
2013-08-30 20:06:00,60.1,43.9,29.80,SW,228,0.0,0.0,55,0.00,,---,0.00,VWS V13.00,2013-08-31 04:06:00,
2013-08-30 20:11:00,60.1,43.9,29.80,SW,228,0.0,0.0,55,0.00,,---,0.00,VWS V13.00,2013-08-31 04:11:00,
2013-08-30 20:16:00,60.1,43.9,29.80,SW,228,0.0,0.0,55,0.00,,---,0.00,VWS V13.00,2013-08-31 04:16:00,
2013-08-30 20:21:00,59.9,44.2,29.80,SW,228,0.0,0.0,56,0.00,,---,0.00,VWS V13.00,2013-08-31 04:21:00,
2013-08-30 20:26:00,59.7,44.0,29.80,SW,228,0.0,0.0,56,0.00,,---,0.00,VWS V13.00,2013-08-31 04:26:00,
2013-08-30 20:31:00,59.5,44.3,29.80,SW,228,0.0,0.0,57,0.00,,---,0.00,VWS V13.00,2013-08-31 04:31:00,
2013-08-30 20:36:00,59.5,44.3,29.80,SW,228,0.0,0.0,57,0.00,,---,0.00,VWS V13.00,2013-08-31 04:36:00,
2013-08-30 20:40:00,59.5,44.3,29.80,SW,227,0.0,0.0,57,0.00,,---,0.00,VWS V13.00,2013-08-31 04:40:00,
2013-08-30 20:45:00,59.4,44.6,29.80,SW,227,0.0,0.0,58,0.00,,---,0.00,VWS V13.00,2013-08-31 04:45:00,
2013-08-30 20:50:00,59.2,44.9,29.80,SW,227,0.0,0.0,59,0.00,,---,0.00,VWS V13.00,2013-08-31 04:50:00,
2013-08-30 20:55:00,59.2,45.3,29.80,SW,227,0.0,0.0,60,0.00,,---,0.00,VWS V13.00,2013-08-31 04:55:00,
2013-08-30 21:00:00,59.2,45.3,29.80,SW,227,0.0,0.0,60,0.00,,---,0.00,VWS V13.00,2013-08-31 05:00:00,
2013-08-30 21:05:00,59.2,45.3,29.80,SW,227,0.0,0.0,60,0.00,,---,0.00,VWS V13.00,2013-08-31 05:05:00,
2013-08-30 21:10:00,58.6,45.2,29.80,SW,227,0.0,0.0,61,0.00,,---,0.00,VWS V13.00,2013-08-31 05:10:00,
2013-08-30 21:15:00,58.6,45.7,29.80,SW,227,0.0,0.0,62,0.00,,---,0.00,VWS V13.00,2013-08-31 05:15:00,
2013-08-30 21:20:00,58.6,45.7,29.77,SW,227,0.0,0.0,62,0.00,,---,0.00,VWS V13.00,2013-08-31 05:20:00,
2013-08-30 21:25:00,58.1,45.6,29.77,SW,227,0.0,0.0,63,0.00,,---,0.00,VWS V13.00,2013-08-31 05:25:00,
2013-08-30 21:30:00,57.9,45.4,29.77,SW,227,0.0,0.0,63,0.00,,---,0.00,VWS V13.00,2013-08-31 05:30:00,
2013-08-30 21:35:00,57.7,45.7,29.77,SW,227,0.0,0.0,64,0.00,,---,0.00,VWS V13.00,2013-08-31 05:35:00,
2013-08-30 21:40:00,57.6,45.5,29.77,SW,227,0.0,0.0,64,0.00,,---,0.00,VWS V13.00,2013-08-31 05:40:00,
2013-08-30 21:45:00,57.2,45.2,29.80,SW,227,0.0,0.0,64,0.00,,---,0.00,VWS V13.00,2013-08-31 05:45:00,
2013-08-30 21:50:00,57.2,45.2,29.80,SW,227,0.0,0.0,64,0.00,,---,0.00,VWS V13.00,2013-08-31 05:50:00,
2013-08-30 21:55:00,56.8,45.6,29.80,SW,227,0.0,0.0,66,0.00,,---,0.00,VWS V13.00,2013-08-31 05:55:00,
2013-08-30 22:00:00,56.7,45.4,29.80,SW,227,0.0,0.0,66,0.00,,---,0.00,VWS V13.00,2013-08-31 06:00:00,
2013-08-30 22:05:00,56.7,45.4,29.80,SW,227,0.0,0.0,66,0.00,,---,0.00,VWS V13.00,2013-08-31 06:05:00,
2013-08-30 22:10:00,56.3,45.1,29.80,SW,227,0.0,0.0,66,0.00,,---,0.00,VWS V13.00,2013-08-31 06:10:00,
2013-08-30 22:15:00,56.3,45.1,29.80,SW,227,0.0,0.0,66,0.00,,---,0.00,VWS V13.00,2013-08-31 06:15:00,
2013-08-30 22:20:00,55.9,45.2,29.80,SW,227,0.0,0.0,67,0.00,,---,0.00,VWS V13.00,2013-08-31 06:20:00,
2013-08-30 22:25:00,55.9,45.2,29.80,SW,228,0.0,0.0,67,0.00,,---,0.00,VWS V13.00,2013-08-31 06:25:00,
2013-08-30 22:30:00,55.6,45.2,29.80,SW,228,0.0,0.0,68,0.00,,---,0.00,VWS V13.00,2013-08-31 06:30:00,
2013-08-30 22:35:00,55.6,45.2,29.80,SW,228,0.0,0.0,68,0.00,,---,0.00,VWS V13.00,2013-08-31 06:35:00,
2013-08-30 22:40:00,55.4,45.0,29.80,SW,228,0.0,0.0,68,0.00,,---,0.00,VWS V13.00,2013-08-31 06:40:00,
2013-08-30 22:45:00,55.2,45.2,29.80,SW,227,0.0,0.0,69,0.00,,---,0.00,VWS V13.00,2013-08-31 06:45:00,
2013-08-30 22:50:00,55.2,45.6,29.80,SW,227,0.0,0.0,70,0.00,,---,0.00,VWS V13.00,2013-08-31 06:50:00,
2013-08-30 22:55:00,55.2,45.6,29.80,SW,227,0.0,0.0,70,0.00,,---,0.00,VWS V13.00,2013-08-31 06:55:00,
2013-08-30 23:00:00,55.2,45.6,29.80,SW,227,0.0,0.0,70,0.00,,---,0.00,VWS V13.00,2013-08-31 07:00:00,
2013-08-30 23:05:00,54.9,45.7,29.80,SW,228,0.0,0.0,71,0.00,,---,0.00,VWS V13.00,2013-08-31 07:05:00,
2013-08-30 23:10:00,54.7,45.5,29.80,SW,228,0.0,0.0,71,0.00,,---,0.00,VWS V13.00,2013-08-31 07:10:00,
2013-08-30 23:15:00,54.7,45.5,29.80,SW,228,0.0,0.0,71,0.00,,---,0.00,VWS V13.00,2013-08-31 07:15:00,
2013-08-30 23:20:00,54.7,45.5,29.80,SW,228,0.0,0.0,71,0.00,,---,0.00,VWS V13.00,2013-08-31 07:20:00,
2013-08-30 23:25:00,54.7,45.5,29.80,SW,228,0.0,0.0,71,0.00,,---,0.00,VWS V13.00,2013-08-31 07:25:00,
2013-08-30 23:30:00,54.3,45.5,29.80,SW,227,0.0,0.0,72,0.00,,---,0.00,VWS V13.00,2013-08-31 07:30:00,
2013-08-30 23:35:00,54.1,45.3,29.80,SW,228,0.0,0.0,72,0.00,,---,0.00,VWS V13.00,2013-08-31 07:35:00,
2013-08-30 23:40:00,54.1,45.3,29.80,SW,228,0.0,0.0,72,0.00,,---,0.00,VWS V13.00,2013-08-31 07:40:00,
2013-08-30 23:45:00,54.0,45.2,29.80,SW,228,0.0,0.0,72,0.00,,---,0.00,VWS V13.00,2013-08-31 07:45:00,
2013-08-30 23:50:00,53.8,45.0,29.80,SW,228,0.0,0.0,72,0.00,,---,0.00,VWS V13.00,2013-08-31 07:50:00,
2013-08-30 23:55:00,53.8,45.0,29.80,SW,227,0.0,0.0,72,0.00,,---,0.00,VWS V13.00,2013-08-31 07:55:00,